Time,TemperatureF,DewpointF,PressureIn,WindDirection,WindDirectionDegrees,WindSpeedMPH,WindSpeedGustMPH,Humidity,HourlyPrecipIn,Conditions,Clouds,dailyrainin,SoftwareType,DateUTC
2013-01-08 00:00:00,31.2,14.3,30.02,North,5,6.0,6.0,49,0.00,,---,0.00,VWS V14.01,2013-01-08 07:00:00,
2013-01-08 00:01:00,31.2,14.7,30.03,North,5,3.0,6.0,50,0.00,,---,0.00,VWS V14.01,2013-01-08 07:01:00,
2013-01-08 00:05:00,31.2,15.2,30.03,NNW,342,3.0,9.0,51,0.00,,---,0.00,VWS V14.01,2013-01-08 07:05:00,
2013-01-08 00:06:00,31.2,15.6,30.03,North,351,2.0,7.0,52,0.00,,---,0.00,VWS V14.01,2013-01-08 07:06:00,
2013-01-08 00:10:00,31.2,15.6,30.03,NNW,341,3.0,7.0,52,0.00,,---,0.00,VWS V14.01,2013-01-08 07:10:00,
2013-01-08 00:11:00,31.1,15.5,30.03,NNW,346,4.0,5.0,52,0.00,,---,0.00,VWS V14.01,2013-01-08 07:11:00,
2013-01-08 00:15:00,31.0,15.9,30.03,North,360,3.0,7.0,53,0.00,,---,0.00,VWS V14.01,2013-01-08 07:15:00,
2013-01-08 00:16:00,30.9,15.8,30.02,NNW,346,3.0,6.0,53,0.00,,---,0.00,VWS V14.01,2013-01-08 07:16:00,
2013-01-08 00:20:00,30.8,16.1,30.02,NNW,346,4.0,6.0,54,0.00,,---,0.00,VWS V14.01,2013-01-08 07:20:00,
2013-01-08 00:21:00,30.8,16.5,30.02,North,5,4.0,9.0,55,0.00,,---,0.00,VWS V14.01,2013-01-08 07:21:00,
2013-01-08 00:25:00,30.7,16.5,30.03,WNW,303,1.0,9.0,55,0.00,,---,0.00,VWS V14.01,2013-01-08 07:25:00,
2013-01-08 00:26:00,30.6,16.4,30.03,NNW,329,1.0,8.0,55,0.00,,---,0.00,VWS V14.01,2013-01-08 07:26:00,
2013-01-08 00:30:00,30.5,16.3,30.03,NNW,342,3.0,8.0,55,0.00,,---,0.00,VWS V14.01,2013-01-08 07:30:00,
2013-01-08 00:31:00,30.5,16.7,30.03,NNW,341,5.0,8.0,56,0.00,,---,0.00,VWS V14.01,2013-01-08 07:31:00,
2013-01-08 00:35:00,30.5,16.7,30.03,NNW,347,9.0,10.0,56,0.00,,---,0.00,VWS V14.01,2013-01-08 07:35:00,
2013-01-08 00:36:00,30.5,16.7,30.03,NNW,348,7.0,9.0,56,0.00,,---,0.00,VWS V14.01,2013-01-08 07:36:00,
2013-01-08 00:41:00,30.5,16.7,30.03,NNW,336,2.0,9.0,56,0.00,,---,0.00,VWS V14.01,2013-01-08 07:41:00,
2013-01-08 00:46:00,30.3,16.9,30.03,NNW,346,4.0,7.0,57,0.00,,---,0.00,VWS V14.01,2013-01-08 07:46:00,
2013-01-08 00:50:00,30.3,16.9,30.03,NNW,339,1.0,9.0,57,0.00,,---,0.00,VWS V14.01,2013-01-08 07:50:00,
2013-01-08 00:51:00,30.2,17.2,30.03,North,10,6.0,6.0,58,0.00,,---,0.00,VWS V14.01,2013-01-08 07:51:00,
2013-01-08 00:55:00,30.2,17.2,30.03,NNE,12,2.0,6.0,58,0.00,,---,0.00,VWS V14.01,2013-01-08 07:55:00,
2013-01-08 00:56:00,30.1,17.1,30.04,NNE,23,0.0,5.0,58,0.00,,---,0.00,VWS V14.01,2013-01-08 07:56:00,
2013-01-08 01:00:00,30.1,17.1,30.03,North,355,0.0,5.0,58,0.00,,---,0.00,VWS V14.01,2013-01-08 08:00:00,
2013-01-08 01:01:00,30.0,17.0,30.04,NNW,329,3.0,6.0,58,0.00,,---,0.00,VWS V14.01,2013-01-08 08:01:00,
2013-01-08 01:05:00,29.9,17.3,30.04,NW,319,3.0,9.0,59,0.00,,---,0.00,VWS V14.01,2013-01-08 08:05:00,
2013-01-08 01:06:00,29.9,17.3,30.04,NNW,331,3.0,5.0,59,0.00,,---,0.00,VWS V14.01,2013-01-08 08:06:00,
2013-01-08 01:11:00,29.8,17.6,30.04,North,360,3.0,9.0,60,0.00,,---,0.00,VWS V14.01,2013-01-08 08:11:00,
2013-01-08 01:15:00,29.8,17.6,30.04,NNW,346,1.0,9.0,60,0.00,,---,0.00,VWS V14.01,2013-01-08 08:15:00,
2013-01-08 01:16:00,29.7,17.5,30.04,North,5,1.0,4.0,60,0.00,,---,0.00,VWS V14.01,2013-01-08 08:16:00,
2013-01-08 01:21:00,29.7,17.5,30.05,North,355,1.0,3.0,60,0.00,,---,0.00,VWS V14.01,2013-01-08 08:21:00,
2013-01-08 01:25:00,29.6,17.4,30.05,ENE,57,2.0,3.0,60,0.00,,---,0.00,VWS V14.01,2013-01-08 08:25:00,
2013-01-08 01:26:00,29.6,17.4,30.05,ENE,57,3.0,3.0,60,0.00,,---,0.00,VWS V14.01,2013-01-08 08:26:00,
2013-01-08 01:30:00,29.6,17.4,30.05,North,11,5.0,5.0,60,0.00,,---,0.00,VWS V14.01,2013-01-08 08:30:00,
2013-01-08 01:31:00,29.6,17.4,30.05,North,11,2.0,5.0,60,0.00,,---,0.00,VWS V14.01,2013-01-08 08:31:00,
2013-01-08 01:35:00,29.6,17.8,30.05,North,355,3.0,6.0,61,0.00,,---,0.00,VWS V14.01,2013-01-08 08:35:00,
2013-01-08 01:36:00,29.5,17.7,30.05,NNW,338,1.0,4.0,61,0.00,,---,0.00,VWS V14.01,2013-01-08 08:36:00,
2013-01-08 01:40:00,29.5,17.7,30.05,North,360,3.0,5.0,61,0.00,,---,0.00,VWS V14.01,2013-01-08 08:40:00,
2013-01-08 01:41:00,29.3,17.5,30.05,North,5,1.0,3.0,61,0.00,,---,0.00,VWS V14.01,2013-01-08 08:41:00,
2013-01-08 01:45:00,29.2,17.4,30.05,North,360,5.0,8.0,61,0.00,,---,0.00,VWS V14.01,2013-01-08 08:45:00,
2013-01-08 01:46:00,29.1,17.3,30.05,NNW,340,4.0,5.0,61,0.00,,---,0.00,VWS V14.01,2013-01-08 08:46:00,
2013-01-08 01:50:00,29.1,17.3,30.05,North,5,2.0,5.0,61,0.00,,---,0.00,VWS V14.01,2013-01-08 08:50:00,
2013-01-08 01:51:00,29.0,17.2,30.05,North,360,2.0,3.0,61,0.00,,---,0.00,VWS V14.01,2013-01-08 08:51:00,
2013-01-08 01:55:00,28.9,17.2,30.05,NNW,347,4.0,4.0,61,0.00,,---,0.00,VWS V14.01,2013-01-08 08:55:00,
2013-01-08 01:56:00,28.8,17.1,30.05,North,355,3.0,4.0,61,0.00,,---,0.00,VWS V14.01,2013-01-08 08:56:00,
2013-01-08 02:00:00,28.7,17.3,30.05,NNW,337,2.0,4.0,62,0.00,,---,0.00,VWS V14.01,2013-01-08 09:00:00,
2013-01-08 02:01:00,28.7,17.3,30.05,NNW,348,1.0,4.0,62,0.00,,---,0.00,VWS V14.01,2013-01-08 09:01:00,
2013-01-08 02:05:00,28.5,17.1,30.05,NNW,348,0.0,4.0,62,0.00,,---,0.00,VWS V14.01,2013-01-08 09:05:00,
2013-01-08 02:06:00,28.4,17.1,30.04,North,355,2.0,3.0,62,0.00,,---,0.00,VWS V14.01,2013-01-08 09:06:00,
2013-01-08 02:10:00,28.3,17.0,30.04,NNE,22,3.0,3.0,62,0.00,,---,0.00,VWS V14.01,2013-01-08 09:10:00,
2013-01-08 02:11:00,28.2,16.9,30.04,NNE,17,2.0,3.0,62,0.00,,---,0.00,VWS V14.01,2013-01-08 09:11:00,
2013-01-08 02:15:00,28.2,16.9,30.04,North,5,2.0,4.0,62,0.00,,---,0.00,VWS V14.01,2013-01-08 09:15:00,
2013-01-08 02:16:00,28.2,16.9,30.04,NNE,17,3.0,6.0,62,0.00,,---,0.00,VWS V14.01,2013-01-08 09:16:00,
2013-01-08 02:20:00,28.1,16.8,30.04,NNW,346,4.0,6.0,62,0.00,,---,0.00,VWS V14.01,2013-01-08 09:20:00,
2013-01-08 02:21:00,28.1,17.1,30.04,North,355,0.0,5.0,63,0.00,,---,0.00,VWS V14.01,2013-01-08 09:21:00,
2013-01-08 02:25:00,28.0,16.7,30.04,NNW,336,0.0,5.0,62,0.00,,---,0.00,VWS V14.01,2013-01-08 09:25:00,
2013-01-08 02:26:00,27.9,17.0,30.04,North,360,0.0,5.0,63,0.00,,---,0.00,VWS V14.01,2013-01-08 09:26:00,
2013-01-08 02:30:00,27.8,16.9,30.04,NNW,341,0.0,5.0,63,0.00,,---,0.00,VWS V14.01,2013-01-08 09:30:00,
2013-01-08 02:31:00,27.8,16.9,30.04,NNW,347,1.0,4.0,63,0.00,,---,0.00,VWS V14.01,2013-01-08 09:31:00,
2013-01-08 02:35:00,27.7,16.8,30.04,NNW,335,1.0,4.0,63,0.00,,---,0.00,VWS V14.01,2013-01-08 09:35:00,
2013-01-08 02:36:00,27.6,16.7,30.04,NNW,344,2.0,6.0,63,0.00,,---,0.00,VWS V14.01,2013-01-08 09:36:00,
2013-01-08 02:40:00,27.5,16.6,30.04,North,350,7.0,7.0,63,0.00,,---,0.00,VWS V14.01,2013-01-08 09:40:00,
2013-01-08 02:41:00,27.5,16.6,30.04,NNW,333,2.0,8.0,63,0.00,,---,0.00,VWS V14.01,2013-01-08 09:41:00,
2013-01-08 02:45:00,27.4,16.5,30.04,NNW,344,4.0,8.0,63,0.00,,---,0.00,VWS V14.01,2013-01-08 09:45:00,
2013-01-08 02:46:00,27.4,16.8,30.04,NNW,329,1.0,5.0,64,0.00,,---,0.00,VWS V14.01,2013-01-08 09:46:00,
2013-01-08 02:50:00,27.3,16.8,30.04,NW,311,5.0,6.0,64,0.00,,---,0.00,VWS V14.01,2013-01-08 09:50:00,
2013-01-08 02:51:00,27.3,16.8,30.04,NNW,343,1.0,5.0,64,0.00,,---,0.00,VWS V14.01,2013-01-08 09:51:00,
2013-01-08 02:55:00,27.2,16.6,30.04,North,349,2.0,7.0,64,0.00,,---,0.00,VWS V14.01,2013-01-08 09:55:00,
2013-01-08 02:56:00,27.1,16.6,30.03,WNW,296,3.0,4.0,64,0.00,,---,0.00,VWS V14.01,2013-01-08 09:56:00,
2013-01-08 03:00:00,27.0,16.5,30.03,NNW,340,3.0,4.0,64,0.00,,---,0.00,VWS V14.01,2013-01-08 10:00:00,
2013-01-08 03:01:00,26.9,16.4,30.03,NNW,344,2.0,5.0,64,0.00,,---,0.00,VWS V14.01,2013-01-08 10:01:00,
2013-01-08 03:05:00,26.7,16.2,30.03,NNW,344,0.0,5.0,64,0.00,,---,0.00,VWS V14.01,2013-01-08 10:05:00,
2013-01-08 03:06:00,26.6,16.1,30.03,North,360,2.0,4.0,64,0.00,,---,0.00,VWS V14.01,2013-01-08 10:06:00,
2013-01-08 03:10:00,26.5,16.0,30.03,NNW,340,0.0,4.0,64,0.00,,---,0.00,VWS V14.01,2013-01-08 10:10:00,
2013-01-08 03:11:00,26.6,16.1,30.03,NE,54,0.0,7.0,64,0.00,,---,0.00,VWS V14.01,2013-01-08 10:11:00,
2013-01-08 03:15:00,26.6,16.1,30.03,NE,37,1.0,7.0,64,0.00,,---,0.00,VWS V14.01,2013-01-08 10:15:00,
2013-01-08 03:16:00,26.6,16.1,30.03,NNE,28,2.0,3.0,64,0.00,,---,0.00,VWS V14.01,2013-01-08 10:16:00,
2013-01-08 03:20:00,26.6,15.7,30.03,NNE,32,0.0,3.0,63,0.00,,---,0.00,VWS V14.01,2013-01-08 10:20:00,
2013-01-08 03:21:00,26.5,15.6,30.03,North,350,2.0,5.0,63,0.00,,---,0.00,VWS V14.01,2013-01-08 10:21:00,
2013-01-08 03:25:00,26.6,15.4,30.03,NE,38,3.0,5.0,62,0.00,,---,0.00,VWS V14.01,2013-01-08 10:25:00,
2013-01-08 03:26:00,26.6,15.4,30.03,North,355,0.0,3.0,62,0.00,,---,0.00,VWS V14.01,2013-01-08 10:26:00,
2013-01-08 03:30:00,26.6,15.4,30.03,North,360,1.0,3.0,62,0.00,,---,0.00,VWS V14.01,2013-01-08 10:30:00,
2013-01-08 03:31:00,26.6,15.0,30.03,North,9,2.0,3.0,61,0.00,,---,0.00,VWS V14.01,2013-01-08 10:31:00,
2013-01-08 03:35:00,26.5,14.5,30.03,NNE,20,1.0,4.0,60,0.00,,---,0.00,VWS V14.01,2013-01-08 10:35:00,
2013-01-08 03:36:00,26.5,14.1,30.03,North,5,5.0,5.0,59,0.00,,---,0.00,VWS V14.01,2013-01-08 10:36:00,
2013-01-08 03:40:00,26.4,14.0,30.03,North,5,1.0,5.0,59,0.00,,---,0.00,VWS V14.01,2013-01-08 10:40:00,
2013-01-08 03:41:00,26.4,14.0,30.03,NW,306,2.0,3.0,59,0.00,,---,0.00,VWS V14.01,2013-01-08 10:41:00,
2013-01-08 03:45:00,26.3,13.6,30.03,NNW,333,0.0,3.0,58,0.00,,---,0.00,VWS V14.01,2013-01-08 10:45:00,
2013-01-08 03:46:00,26.2,13.4,30.03,North,360,2.0,2.0,58,0.00,,---,0.00,VWS V14.01,2013-01-08 10:46:00,
2013-01-08 03:50:00,26.1,13.4,30.03,NNW,338,2.0,3.0,58,0.00,,---,0.00,VWS V14.01,2013-01-08 10:50:00,
2013-01-08 03:51:00,26.1,13.0,30.03,North,350,0.0,3.0,57,0.00,,---,0.00,VWS V14.01,2013-01-08 10:51:00,
2013-01-08 03:56:00,25.9,12.8,30.03,NNW,345,0.0,2.0,57,0.00,,---,0.00,VWS V14.01,2013-01-08 10:56:00,
2013-01-08 04:00:00,25.8,12.7,30.03,North,360,0.0,2.0,57,0.00,,---,0.00,VWS V14.01,2013-01-08 11:00:00,
2013-01-08 04:01:00,25.7,12.6,30.03,NNW,340,3.0,3.0,57,0.00,,---,0.00,VWS V14.01,2013-01-08 11:01:00,
2013-01-08 04:05:00,25.7,12.2,30.04,North,349,1.0,3.0,56,0.00,,---,0.00,VWS V14.01,2013-01-08 11:05:00,
2013-01-08 04:06:00,25.7,12.2,30.04,NNW,343,0.0,2.0,56,0.00,,---,0.00,VWS V14.01,2013-01-08 11:06:00,
2013-01-08 04:10:00,25.6,12.1,30.04,NNW,343,0.0,2.0,56,0.00,,---,0.00,VWS V14.01,2013-01-08 11:10:00,
2013-01-08 04:11:00,25.5,11.6,30.04,NNW,343,2.0,2.0,55,0.00,,---,0.00,VWS V14.01,2013-01-08 11:11:00,
2013-01-08 04:15:00,25.4,11.5,30.04,North,360,0.0,3.0,55,0.00,,---,0.00,VWS V14.01,2013-01-08 11:15:00,
2013-01-08 04:16:00,25.3,11.4,30.05,North,349,0.0,2.0,55,0.00,,---,0.00,VWS V14.01,2013-01-08 11:16:00,
2013-01-08 04:20:00,25.2,11.3,30.04,NNE,22,1.0,3.0,55,0.00,,---,0.00,VWS V14.01,2013-01-08 11:20:00,
2013-01-08 04:21:00,25.2,11.3,30.05,NNW,342,1.0,4.0,55,0.00,,---,0.00,VWS V14.01,2013-01-08 11:21:00,
2013-01-08 04:25:00,25.1,11.2,30.05,NNE,13,3.0,4.0,55,0.00,,---,0.00,VWS V14.01,2013-01-08 11:25:00,
2013-01-08 04:26:00,25.1,11.2,30.04,NNW,336,3.0,3.0,55,0.00,,---,0.00,VWS V14.01,2013-01-08 11:26:00,
2013-01-08 04:30:00,25.1,11.2,30.04,NNW,341,1.0,3.0,55,0.00,,---,0.00,VWS V14.01,2013-01-08 11:30:00,
2013-01-08 04:31:00,25.1,11.2,30.04,NNE,19,3.0,4.0,55,0.00,,---,0.00,VWS V14.01,2013-01-08 11:31:00,
2013-01-08 04:35:00,25.2,11.3,30.04,NNW,333,2.0,7.0,55,0.00,,---,0.00,VWS V14.01,2013-01-08 11:35:00,
2013-01-08 04:36:00,25.3,11.4,30.04,NNW,342,1.0,5.0,55,0.00,,---,0.00,VWS V14.01,2013-01-08 11:36:00,
2013-01-08 04:40:00,25.3,11.4,30.04,NNW,342,6.0,6.0,55,0.00,,---,0.00,VWS V14.01,2013-01-08 11:40:00,
2013-01-08 04:41:00,25.4,11.5,30.04,North,355,4.0,7.0,55,0.00,,---,0.00,VWS V14.01,2013-01-08 11:41:00,
2013-01-08 04:45:00,25.5,11.6,30.04,NW,324,3.0,7.0,55,0.00,,---,0.00,VWS V14.01,2013-01-08 11:45:00,
2013-01-08 04:46:00,25.6,11.7,30.04,North,9,1.0,6.0,55,0.00,,---,0.00,VWS V14.01,2013-01-08 11:46:00,
2013-01-08 04:50:00,25.7,11.8,30.04,NNW,344,2.0,7.0,55,0.00,,---,0.00,VWS V14.01,2013-01-08 11:50:00,
2013-01-08 04:51:00,25.7,11.8,30.04,NNW,344,2.0,4.0,55,0.00,,---,0.00,VWS V14.01,2013-01-08 11:51:00,
2013-01-08 04:55:00,25.7,11.8,30.04,NW,315,3.0,4.0,55,0.00,,---,0.00,VWS V14.01,2013-01-08 11:55:00,
2013-01-08 04:56:00,25.7,11.8,30.04,NNW,339,2.0,4.0,55,0.00,,---,0.00,VWS V14.01,2013-01-08 11:56:00,
2013-01-08 05:00:00,25.7,11.8,30.05,NNW,343,2.0,4.0,55,0.00,,---,0.00,VWS V14.01,2013-01-08 12:00:00,
2013-01-08 05:01:00,25.6,12.1,30.05,NNW,348,4.0,4.0,56,0.00,,---,0.00,VWS V14.01,2013-01-08 12:01:00,
2013-01-08 05:05:00,25.6,12.1,30.05,North,355,0.0,6.0,56,0.00,,---,0.00,VWS V14.01,2013-01-08 12:05:00,
2013-01-08 05:06:00,25.6,12.1,30.05,North,5,1.0,3.0,56,0.00,,---,0.00,VWS V14.01,2013-01-08 12:06:00,
2013-01-08 05:10:00,25.7,12.2,30.05,NNE,17,0.0,3.0,56,0.00,,---,0.00,VWS V14.01,2013-01-08 12:10:00,
2013-01-08 05:11:00,25.7,12.6,30.05,NNE,17,0.0,1.0,57,0.00,,---,0.00,VWS V14.01,2013-01-08 12:11:00,
2013-01-08 05:15:00,25.6,12.5,30.05,NNW,347,0.0,3.0,57,0.00,,---,0.00,VWS V14.01,2013-01-08 12:15:00,
2013-01-08 05:16:00,25.6,12.5,30.05,NNW,327,2.0,2.0,57,0.00,,---,0.00,VWS V14.01,2013-01-08 12:16:00,
2013-01-08 05:20:00,25.6,12.5,30.05,North,5,0.0,2.0,57,0.00,,---,0.00,VWS V14.01,2013-01-08 12:20:00,
2013-01-08 05:21:00,25.5,12.4,30.05,North,5,0.0,0.0,57,0.00,,---,0.00,VWS V14.01,2013-01-08 12:21:00,
2013-01-08 05:25:00,25.5,12.8,30.06,NE,34,0.0,1.0,58,0.00,,---,0.00,VWS V14.01,2013-01-08 12:25:00,
2013-01-08 05:26:00,25.4,12.7,30.06,NNE,22,1.0,1.0,58,0.00,,---,0.00,VWS V14.01,2013-01-08 12:26:00,
2013-01-08 05:30:00,25.2,12.5,30.06,NE,44,0.0,1.0,58,0.00,,---,0.00,VWS V14.01,2013-01-08 12:30:00,
2013-01-08 05:31:00,25.2,12.9,30.06,NE,44,0.0,0.0,59,0.00,,---,0.00,VWS V14.01,2013-01-08 12:31:00,
2013-01-08 05:35:00,25.1,12.8,30.06,NE,44,0.0,1.0,59,0.00,,---,0.00,VWS V14.01,2013-01-08 12:35:00,
2013-01-08 05:36:00,24.9,12.6,30.06,NE,44,0.0,0.0,59,0.00,,---,0.00,VWS V14.01,2013-01-08 12:36:00,
2013-01-08 05:40:00,24.5,12.6,30.06,NE,44,0.0,0.0,60,0.00,,---,0.00,VWS V14.01,2013-01-08 12:40:00,
2013-01-08 05:41:00,24.4,12.5,30.06,NE,44,0.0,0.0,60,0.00,,---,0.00,VWS V14.01,2013-01-08 12:41:00,
2013-01-08 05:45:00,24.1,12.6,30.06,NE,44,0.0,0.0,61,0.00,,---,0.00,VWS V14.01,2013-01-08 12:45:00,
2013-01-08 05:46:00,24.0,12.5,30.06,NE,44,0.0,0.0,61,0.00,,---,0.00,VWS V14.01,2013-01-08 12:46:00,
2013-01-08 05:50:00,23.9,12.4,30.06,NE,44,0.0,0.0,61,0.00,,---,0.00,VWS V14.01,2013-01-08 12:50:00,
2013-01-08 05:51:00,23.9,12.4,30.06,NE,44,0.0,0.0,61,0.00,,---,0.00,VWS V14.01,2013-01-08 12:51:00,
2013-01-08 05:55:00,23.9,12.4,30.06,NE,44,0.0,0.0,61,0.00,,---,0.00,VWS V14.01,2013-01-08 12:55:00,
2013-01-08 05:56:00,23.8,12.3,30.06,NE,44,0.0,0.0,61,0.00,,---,0.00,VWS V14.01,2013-01-08 12:56:00,
2013-01-08 06:00:00,23.5,12.0,30.06,NE,44,0.0,0.0,61,0.00,,---,0.00,VWS V14.01,2013-01-08 13:00:00,
2013-01-08 06:01:00,23.3,12.2,30.06,NE,44,0.0,0.0,62,0.00,,---,0.00,VWS V14.01,2013-01-08 13:01:00,
2013-01-08 06:05:00,23.2,12.5,30.06,NE,44,0.0,0.0,63,0.00,,---,0.00,VWS V14.01,2013-01-08 13:05:00,
2013-01-08 06:06:00,23.3,12.6,30.06,NE,44,0.0,0.0,63,0.00,,---,0.00,VWS V14.01,2013-01-08 13:06:00,
2013-01-08 06:10:00,23.5,12.8,30.06,NE,44,0.0,0.0,63,0.00,,---,0.00,VWS V14.01,2013-01-08 13:10:00,
2013-01-08 06:11:00,23.4,12.3,30.06,NE,44,0.0,0.0,62,0.00,,---,0.00,VWS V14.01,2013-01-08 13:11:00,
2013-01-08 06:15:00,23.1,12.0,30.06,NE,44,0.0,0.0,62,0.00,,---,0.00,VWS V14.01,2013-01-08 13:15:00,
2013-01-08 06:16:00,23.0,11.9,30.07,NE,44,0.0,1.0,62,0.00,,---,0.00,VWS V14.01,2013-01-08 13:16:00,
2013-01-08 06:20:00,23.3,12.2,30.07,NE,44,0.0,1.0,62,0.00,,---,0.00,VWS V14.01,2013-01-08 13:20:00,
2013-01-08 06:21:00,23.6,12.5,30.07,NE,44,0.0,1.0,62,0.00,,---,0.00,VWS V14.01,2013-01-08 13:21:00,
2013-01-08 06:25:00,23.8,12.3,30.07,NNE,15,1.0,2.0,61,0.00,,---,0.00,VWS V14.01,2013-01-08 13:25:00,
2013-01-08 06:26:00,23.8,12.3,30.07,NNW,347,0.0,2.0,61,0.00,,---,0.00,VWS V14.01,2013-01-08 13:26:00,
2013-01-08 06:30:00,23.9,12.4,30.08,North,360,2.0,3.0,61,0.00,,---,0.00,VWS V14.01,2013-01-08 13:30:00,
2013-01-08 06:31:00,24.0,12.5,30.08,North,350,0.0,3.0,61,0.00,,---,0.00,VWS V14.01,2013-01-08 13:31:00,
2013-01-08 06:35:00,24.3,12.8,30.08,NNW,348,3.0,4.0,61,0.00,,---,0.00,VWS V14.01,2013-01-08 13:35:00,
2013-01-08 06:36:00,24.6,13.1,30.08,North,355,2.0,5.0,61,0.00,,---,0.00,VWS V14.01,2013-01-08 13:36:00,
2013-01-08 06:40:00,24.9,13.7,30.08,North,355,1.0,6.0,62,0.00,,---,0.00,VWS V14.01,2013-01-08 13:40:00,
2013-01-08 06:41:00,25.1,13.9,30.08,North,9,3.0,6.0,62,0.00,,---,0.00,VWS V14.01,2013-01-08 13:41:00,
2013-01-08 06:45:00,25.4,13.8,30.08,NNW,348,5.0,6.0,61,0.00,,---,0.00,VWS V14.01,2013-01-08 13:45:00,
2013-01-08 06:46:00,25.6,14.0,30.08,NNE,29,4.0,5.0,61,0.00,,---,0.00,VWS V14.01,2013-01-08 13:46:00,
2013-01-08 06:50:00,25.8,14.2,30.08,NNE,13,2.0,6.0,61,0.00,,---,0.00,VWS V14.01,2013-01-08 13:50:00,
2013-01-08 06:51:00,25.9,14.3,30.08,North,360,1.0,5.0,61,0.00,,---,0.00,VWS V14.01,2013-01-08 13:51:00,
2013-01-08 06:55:00,25.9,14.3,30.08,NNE,27,1.0,5.0,61,0.00,,---,0.00,VWS V14.01,2013-01-08 13:55:00,
2013-01-08 06:56:00,26.0,14.4,30.08,North,5,1.0,4.0,61,0.00,,---,0.00,VWS V14.01,2013-01-08 13:56:00,
2013-01-08 07:00:00,26.1,14.1,30.08,North,350,0.0,4.0,60,0.00,,---,0.00,VWS V14.01,2013-01-08 14:00:00,
2013-01-08 07:01:00,26.0,14.0,30.08,NE,53,0.0,2.0,60,0.00,,---,0.00,VWS V14.01,2013-01-08 14:01:00,
2013-01-08 07:05:00,26.0,14.0,30.08,North,355,1.0,5.0,60,0.00,,---,0.00,VWS V14.01,2013-01-08 14:05:00,
2013-01-08 07:06:00,26.0,14.4,30.08,NNW,332,1.0,3.0,61,0.00,,---,0.00,VWS V14.01,2013-01-08 14:06:00,
2013-01-08 07:10:00,25.9,14.3,30.08,NNW,342,0.0,3.0,61,0.00,,---,0.00,VWS V14.01,2013-01-08 14:10:00,
2013-01-08 07:11:00,25.8,14.6,30.08,NNW,334,1.0,2.0,62,0.00,,---,0.00,VWS V14.01,2013-01-08 14:11:00,
2013-01-08 07:16:00,25.5,14.3,30.08,NW,321,1.0,3.0,62,0.00,,---,0.00,VWS V14.01,2013-01-08 14:16:00,
2013-01-08 07:20:00,25.6,14.0,30.08,NNW,340,4.0,6.0,61,0.00,,---,0.00,VWS V14.01,2013-01-08 14:20:00,
2013-01-08 07:21:00,25.6,14.8,30.09,NW,321,5.0,5.0,63,0.00,,---,0.00,VWS V14.01,2013-01-08 14:21:00,
2013-01-08 07:25:00,25.7,14.1,30.09,North,5,6.0,8.0,61,0.00,,---,0.00,VWS V14.01,2013-01-08 14:25:00,
2013-01-08 07:26:00,25.8,13.9,30.09,North,360,2.0,8.0,60,0.00,,---,0.00,VWS V14.01,2013-01-08 14:26:00,
2013-01-08 07:30:00,25.8,13.9,30.09,NNW,340,2.0,8.0,60,0.00,,---,0.00,VWS V14.01,2013-01-08 14:30:00,
2013-01-08 07:31:00,25.8,13.9,30.09,North,11,1.0,6.0,60,0.00,,---,0.00,VWS V14.01,2013-01-08 14:31:00,
2013-01-08 07:35:00,25.9,13.6,30.09,NNE,13,1.0,6.0,59,0.00,,---,0.00,VWS V14.01,2013-01-08 14:35:00,
2013-01-08 07:36:00,26.0,13.3,30.09,NNW,343,4.0,5.0,58,0.00,,---,0.00,VWS V14.01,2013-01-08 14:36:00,
2013-01-08 07:40:00,26.2,13.1,30.09,NNE,14,2.0,6.0,57,0.00,,---,0.00,VWS V14.01,2013-01-08 14:40:00,
2013-01-08 07:41:00,26.3,13.1,30.09,North,355,3.0,3.0,57,0.00,,---,0.00,VWS V14.01,2013-01-08 14:41:00,
2013-01-08 07:45:00,26.5,13.3,30.10,North,360,3.0,5.0,57,0.00,,---,0.00,VWS V14.01,2013-01-08 14:45:00,
2013-01-08 07:46:00,26.7,13.1,30.10,NW,314,2.0,6.0,56,0.00,,---,0.00,VWS V14.01,2013-01-08 14:46:00,
2013-01-08 07:50:00,26.9,12.9,30.10,NNW,341,5.0,9.0,55,0.00,,---,0.00,VWS V14.01,2013-01-08 14:50:00,
2013-01-08 07:51:00,27.1,13.1,30.10,NNE,22,3.0,6.0,55,0.00,,---,0.00,VWS V14.01,2013-01-08 14:51:00,
2013-01-08 07:55:00,27.4,13.4,30.10,North,350,2.0,7.0,55,0.00,,---,0.00,VWS V14.01,2013-01-08 14:55:00,
2013-01-08 07:56:00,27.5,13.5,30.10,NW,309,2.0,8.0,55,0.00,,---,0.00,VWS V14.01,2013-01-08 14:56:00,
2013-01-08 08:00:00,28.0,13.5,30.11,North,355,5.0,9.0,54,0.00,,---,0.00,VWS V14.01,2013-01-08 15:00:00,
2013-01-08 08:01:00,28.3,13.8,30.11,North,350,1.0,7.0,54,0.00,,---,0.00,VWS V14.01,2013-01-08 15:01:00,
2013-01-08 08:05:00,28.6,14.1,30.11,NNW,347,5.0,9.0,54,0.00,,---,0.00,VWS V14.01,2013-01-08 15:05:00,
2013-01-08 08:06:00,28.7,13.8,30.11,NNW,344,9.0,13.0,53,0.00,,---,0.00,VWS V14.01,2013-01-08 15:06:00,
2013-01-08 08:10:00,28.7,12.9,30.11,NE,46,3.0,13.0,51,0.00,,---,0.00,VWS V14.01,2013-01-08 15:10:00,
2013-01-08 08:11:00,28.6,12.3,30.11,North,351,3.0,7.0,50,0.00,,---,0.00,VWS V14.01,2013-01-08 15:11:00,
2013-01-08 08:15:00,28.4,11.2,30.11,NNW,331,7.0,10.0,48,0.00,,---,0.00,VWS V14.01,2013-01-08 15:15:00,
2013-01-08 08:16:00,28.4,11.2,30.11,NE,44,4.0,9.0,48,0.00,,---,0.00,VWS V14.01,2013-01-08 15:16:00,
2013-01-08 08:20:00,28.4,11.2,30.12,NNE,17,4.0,9.0,48,0.00,,---,0.00,VWS V14.01,2013-01-08 15:20:00,
2013-01-08 08:21:00,28.6,10.9,30.12,NNW,343,6.0,9.0,47,0.00,,---,0.00,VWS V14.01,2013-01-08 15:21:00,
2013-01-08 08:25:00,28.8,11.1,30.12,North,355,4.0,9.0,47,0.00,,---,0.00,VWS V14.01,2013-01-08 15:25:00,
2013-01-08 08:26:00,29.1,11.4,30.13,NNW,348,2.0,6.0,47,0.00,,---,0.00,VWS V14.01,2013-01-08 15:26:00,
2013-01-08 08:30:00,29.4,11.7,30.13,NNE,27,6.0,7.0,47,0.00,,---,0.00,VWS V14.01,2013-01-08 15:30:00,
2013-01-08 08:31:00,29.6,11.9,30.13,NNW,335,7.0,7.0,47,0.00,,---,0.00,VWS V14.01,2013-01-08 15:31:00,
2013-01-08 08:35:00,29.8,12.5,30.13,NNE,24,3.0,11.0,48,0.00,,---,0.00,VWS V14.01,2013-01-08 15:35:00,
2013-01-08 08:36:00,30.0,13.2,30.13,NE,34,9.0,9.0,49,0.00,,---,0.00,VWS V14.01,2013-01-08 15:36:00,
2013-01-08 08:40:00,30.4,13.5,30.13,NNE,31,5.0,9.0,49,0.00,,---,0.00,VWS V14.01,2013-01-08 15:40:00,
2013-01-08 08:41:00,30.6,13.7,30.13,NW,319,3.0,8.0,49,0.00,,---,0.00,VWS V14.01,2013-01-08 15:41:00,
2013-01-08 08:45:00,31.0,13.6,30.13,NNW,327,9.0,11.0,48,0.00,,---,0.00,VWS V14.01,2013-01-08 15:45:00,
2013-01-08 08:46:00,31.1,13.7,30.14,NNW,348,6.0,9.0,48,0.00,,---,0.00,VWS V14.01,2013-01-08 15:46:00,
2013-01-08 08:50:00,31.5,14.1,30.14,NNW,335,4.0,9.0,48,0.00,,---,0.00,VWS V14.01,2013-01-08 15:50:00,
2013-01-08 08:51:00,31.7,13.8,30.14,North,11,7.0,9.0,47,0.00,,---,0.00,VWS V14.01,2013-01-08 15:51:00,
2013-01-08 08:55:00,32.1,14.2,30.14,NNE,28,5.0,11.0,47,0.00,,---,0.00,VWS V14.01,2013-01-08 15:55:00,
2013-01-08 08:56:00,32.2,13.8,30.13,NNW,339,4.0,9.0,46,0.00,,---,0.00,VWS V14.01,2013-01-08 15:56:00,
2013-01-08 09:00:00,32.4,13.9,30.13,NNW,339,5.0,10.0,46,0.00,,---,0.00,VWS V14.01,2013-01-08 16:00:00,
2013-01-08 09:01:00,32.6,13.6,30.13,North,355,8.0,9.0,45,0.00,,---,0.00,VWS V14.01,2013-01-08 16:01:00,
2013-01-08 09:05:00,33.0,13.5,30.13,North,9,7.0,10.0,44,0.00,,---,0.00,VWS V14.01,2013-01-08 16:05:00,
2013-01-08 09:06:00,33.1,13.6,30.12,NNW,345,7.0,9.0,44,0.00,,---,0.00,VWS V14.01,2013-01-08 16:06:00,
2013-01-08 09:10:00,33.6,13.5,30.12,North,355,3.0,11.0,43,0.00,,---,0.00,VWS V14.01,2013-01-08 16:10:00,
2013-01-08 09:11:00,33.7,13.1,30.12,NNW,340,6.0,9.0,42,0.00,,---,0.00,VWS V14.01,2013-01-08 16:11:00,
2013-01-08 09:15:00,34.1,13.4,30.12,North,5,5.0,11.0,42,0.00,,---,0.00,VWS V14.01,2013-01-08 16:15:00,
2013-01-08 09:16:00,34.3,13.1,30.12,NNE,23,5.0,11.0,41,0.00,,---,0.00,VWS V14.01,2013-01-08 16:16:00,
2013-01-08 09:20:00,34.5,13.2,30.13,NNW,337,7.0,11.0,41,0.00,,---,0.00,VWS V14.01,2013-01-08 16:20:00,
2013-01-08 09:21:00,34.8,13.5,30.13,NNW,330,7.0,8.0,41,0.00,,---,0.00,VWS V14.01,2013-01-08 16:21:00,
2013-01-08 09:25:00,35.0,14.2,30.13,North,5,9.0,9.0,42,0.00,,---,0.00,VWS V14.01,2013-01-08 16:25:00,
2013-01-08 09:26:00,35.1,13.8,30.13,North,5,7.0,10.0,41,0.00,,---,0.00,VWS V14.01,2013-01-08 16:26:00,
2013-01-08 09:30:00,35.3,14.0,30.13,NNW,346,1.0,12.0,41,0.00,,---,0.00,VWS V14.01,2013-01-08 16:30:00,
2013-01-08 09:31:00,35.6,13.7,30.13,NNW,333,8.0,12.0,40,0.00,,---,0.00,VWS V14.01,2013-01-08 16:31:00,
2013-01-08 09:35:00,35.6,13.7,30.13,NE,38,4.0,12.0,40,0.00,,---,0.00,VWS V14.01,2013-01-08 16:35:00,
2013-01-08 09:36:00,35.5,13.6,30.14,NNW,341,3.0,10.0,40,0.00,,---,0.00,VWS V14.01,2013-01-08 16:36:00,
2013-01-08 09:40:00,35.4,13.5,30.14,NNE,17,4.0,11.0,40,0.00,,---,0.00,VWS V14.01,2013-01-08 16:40:00,
2013-01-08 09:41:00,35.5,13.6,30.14,North,349,8.0,8.0,40,0.00,,---,0.00,VWS V14.01,2013-01-08 16:41:00,
2013-01-08 09:45:00,35.7,13.8,30.14,NNW,334,1.0,10.0,40,0.00,,---,0.00,VWS V14.01,2013-01-08 16:45:00,
2013-01-08 09:46:00,35.9,13.9,30.14,North,360,7.0,7.0,40,0.00,,---,0.00,VWS V14.01,2013-01-08 16:46:00,
2013-01-08 09:50:00,35.7,13.2,30.14,NNW,334,6.0,11.0,39,0.00,,---,0.00,VWS V14.01,2013-01-08 16:50:00,
2013-01-08 09:51:00,35.7,13.8,30.13,NNW,333,4.0,8.0,40,0.00,,---,0.00,VWS V14.01,2013-01-08 16:51:00,
2013-01-08 09:55:00,35.9,13.9,30.14,NNW,339,5.0,8.0,40,0.00,,---,0.00,VWS V14.01,2013-01-08 16:55:00,
2013-01-08 09:56:00,36.1,14.1,30.14,NNW,338,6.0,8.0,40,0.00,,---,0.00,VWS V14.01,2013-01-08 16:56:00,
2013-01-08 10:00:00,36.0,14.0,30.14,NNE,22,5.0,9.0,40,0.00,,---,0.00,VWS V14.01,2013-01-08 17:00:00,
2013-01-08 10:01:00,36.1,13.6,30.14,NNW,344,8.0,10.0,39,0.00,,---,0.00,VWS V14.01,2013-01-08 17:01:00,
2013-01-08 10:05:00,36.0,14.0,30.14,NNW,348,14.0,14.0,40,0.00,,---,0.00,VWS V14.01,2013-01-08 17:05:00,
2013-01-08 10:06:00,35.9,13.4,30.14,NW,325,4.0,14.0,39,0.00,,---,0.00,VWS V14.01,2013-01-08 17:06:00,
2013-01-08 10:10:00,36.0,13.5,30.14,NNW,344,7.0,14.0,39,0.00,,---,0.00,VWS V14.01,2013-01-08 17:10:00,
2013-01-08 10:11:00,36.0,13.5,30.14,NNW,327,5.0,16.0,39,0.00,,---,0.00,VWS V14.01,2013-01-08 17:11:00,
2013-01-08 10:15:00,36.1,13.6,30.14,NW,313,5.0,16.0,39,0.00,,---,0.00,VWS V14.01,2013-01-08 17:15:00,
2013-01-08 10:16:00,36.2,13.6,30.14,North,355,6.0,10.0,39,0.00,,---,0.00,VWS V14.01,2013-01-08 17:16:00,
2013-01-08 10:20:00,36.2,13.6,30.14,NW,319,6.0,11.0,39,0.00,,---,0.00,VWS V14.01,2013-01-08 17:20:00,
2013-01-08 10:21:00,36.5,13.9,30.14,NW,318,5.0,6.0,39,0.00,,---,0.00,VWS V14.01,2013-01-08 17:21:00,
2013-01-08 10:25:00,36.6,14.0,30.14,WNW,296,6.0,9.0,39,0.00,,---,0.00,VWS V14.01,2013-01-08 17:25:00,
2013-01-08 10:26:00,36.5,13.9,30.14,North,355,8.0,12.0,39,0.00,,---,0.00,VWS V14.01,2013-01-08 17:26:00,
2013-01-08 10:30:00,36.8,14.2,30.14,NNW,340,9.0,13.0,39,0.00,,---,0.00,VWS V14.01,2013-01-08 17:30:00,
2013-01-08 10:31:00,36.9,14.3,30.14,NW,314,10.0,10.0,39,0.00,,---,0.00,VWS V14.01,2013-01-08 17:31:00,
2013-01-08 10:35:00,36.8,13.6,30.13,NNE,26,6.0,12.0,38,0.00,,---,0.00,VWS V14.01,2013-01-08 17:35:00,
2013-01-08 10:36:00,36.7,13.5,30.13,NW,310,4.0,12.0,38,0.00,,---,0.00,VWS V14.01,2013-01-08 17:36:00,
2013-01-08 10:40:00,37.0,13.8,30.13,North,355,7.0,13.0,38,0.00,,---,0.00,VWS V14.01,2013-01-08 17:40:00,
2013-01-08 10:41:00,37.0,13.2,30.13,North,360,7.0,10.0,37,0.00,,---,0.00,VWS V14.01,2013-01-08 17:41:00,
2013-01-08 10:45:00,37.3,12.8,30.13,NNW,334,8.0,12.0,36,0.00,,---,0.00,VWS V14.01,2013-01-08 17:45:00,
2013-01-08 10:46:00,37.5,13.0,30.13,North,11,3.0,8.0,36,0.00,,---,0.00,VWS V14.01,2013-01-08 17:46:00,
2013-01-08 10:50:00,37.7,13.2,30.13,North,355,3.0,10.0,36,0.00,,---,0.00,VWS V14.01,2013-01-08 17:50:00,
2013-01-08 10:51:00,38.0,13.4,30.12,NNE,16,1.0,6.0,36,0.00,,---,0.00,VWS V14.01,2013-01-08 17:51:00,
2013-01-08 10:55:00,38.4,13.1,30.12,NNE,13,7.0,12.0,35,0.00,,---,0.00,VWS V14.01,2013-01-08 17:55:00,
2013-01-08 10:56:00,38.5,13.2,30.12,NNW,341,3.0,7.0,35,0.00,,---,0.00,VWS V14.01,2013-01-08 17:56:00,
2013-01-08 11:00:00,38.8,12.9,30.12,North,351,6.0,8.0,34,0.00,,---,0.00,VWS V14.01,2013-01-08 18:00:00,
2013-01-08 11:01:00,39.0,13.0,30.12,NNE,15,4.0,8.0,34,0.00,,---,0.00,VWS V14.01,2013-01-08 18:01:00,
2013-01-08 11:05:00,39.2,13.2,30.12,NW,308,6.0,8.0,34,0.00,,---,0.00,VWS V14.01,2013-01-08 18:05:00,
2013-01-08 11:06:00,39.2,13.2,30.12,NW,322,8.0,8.0,34,0.00,,---,0.00,VWS V14.01,2013-01-08 18:06:00,
2013-01-08 11:10:00,39.3,13.3,30.12,NNW,333,8.0,8.0,34,0.00,,---,0.00,VWS V14.01,2013-01-08 18:10:00,
2013-01-08 11:11:00,39.1,12.4,30.12,North,360,6.0,9.0,33,0.00,,---,0.00,VWS V14.01,2013-01-08 18:11:00,
2013-01-08 11:15:00,39.2,13.2,30.12,NNE,13,4.0,10.0,34,0.00,,---,0.00,VWS V14.01,2013-01-08 18:15:00,
2013-01-08 11:16:00,39.5,13.5,30.12,North,355,6.0,9.0,34,0.00,,---,0.00,VWS V14.01,2013-01-08 18:16:00,
2013-01-08 11:20:00,39.5,12.8,30.11,North,355,8.0,12.0,33,0.00,,---,0.00,VWS V14.01,2013-01-08 18:20:00,
2013-01-08 11:21:00,39.5,12.8,30.11,North,360,6.0,8.0,33,0.00,,---,0.00,VWS V14.01,2013-01-08 18:21:00,
2013-01-08 11:25:00,40.0,13.2,30.11,North,5,3.0,8.0,33,0.00,,---,0.00,VWS V14.01,2013-01-08 18:25:00,
2013-01-08 11:26:00,40.2,13.4,30.11,North,355,3.0,4.0,33,0.00,,---,0.00,VWS V14.01,2013-01-08 18:26:00,
2013-01-08 11:30:00,40.9,13.3,30.11,North,360,5.0,9.0,32,0.00,,---,0.00,VWS V14.01,2013-01-08 18:30:00,
2013-01-08 11:31:00,40.7,13.1,30.11,NNW,342,7.0,7.0,32,0.00,,---,0.00,VWS V14.01,2013-01-08 18:31:00,
2013-01-08 11:35:00,40.8,13.2,30.11,NNW,339,5.0,14.0,32,0.00,,---,0.00,VWS V14.01,2013-01-08 18:35:00,
2013-01-08 11:40:00,41.2,13.6,30.11,NNW,340,3.0,8.0,32,0.00,,---,0.00,VWS V14.01,2013-01-08 18:40:00,
2013-01-08 11:45:00,41.8,13.4,30.10,North,5,3.0,6.0,31,0.00,,---,0.00,VWS V14.01,2013-01-08 18:45:00,
2013-01-08 11:50:00,42.0,13.6,30.10,NNW,346,3.0,7.0,31,0.00,,---,0.00,VWS V14.01,2013-01-08 18:50:00,
2013-01-08 11:55:00,42.4,13.2,30.10,NNW,346,5.0,7.0,30,0.00,,---,0.00,VWS V14.01,2013-01-08 18:55:00,
2013-01-08 12:00:00,42.8,13.5,30.10,North,355,6.0,7.0,30,0.00,,---,0.00,VWS V14.01,2013-01-08 19:00:00,
2013-01-08 12:05:00,43.1,13.8,30.09,North,5,6.0,8.0,30,0.00,,---,0.00,VWS V14.01,2013-01-08 19:05:00,
2013-01-08 12:10:00,43.3,13.2,30.09,North,360,4.0,9.0,29,0.00,,---,0.00,VWS V14.01,2013-01-08 19:10:00,
2013-01-08 12:15:00,43.4,13.3,30.09,North,360,2.0,7.0,29,0.00,,---,0.00,VWS V14.01,2013-01-08 19:15:00,
2013-01-08 12:20:00,43.3,13.2,30.09,North,355,3.0,5.0,29,0.00,,---,0.00,VWS V14.01,2013-01-08 19:20:00,
2013-01-08 12:25:00,43.6,13.5,30.08,North,355,8.0,8.0,29,0.00,,---,0.00,VWS V14.01,2013-01-08 19:25:00,
2013-01-08 12:30:00,44.2,13.2,30.08,North,5,6.0,6.0,28,0.00,,---,0.00,VWS V14.01,2013-01-08 19:30:00,
2013-01-08 12:35:00,44.5,13.4,30.07,NNW,328,3.0,8.0,28,0.00,,---,0.00,VWS V14.01,2013-01-08 19:35:00,
2013-01-08 12:40:00,44.6,13.5,30.07,North,5,4.0,8.0,28,0.00,,---,0.00,VWS V14.01,2013-01-08 19:40:00,
2013-01-08 12:41:00,44.7,13.6,30.07,NE,44,5.0,5.0,28,0.00,,---,0.00,VWS V14.01,2013-01-08 19:41:00,
2013-01-08 12:45:00,44.9,13.0,30.06,NNE,26,3.0,6.0,27,0.00,,---,0.00,VWS V14.01,2013-01-08 19:45:00,
2013-01-08 12:50:00,45.0,13.1,30.07,NW,305,6.0,8.0,27,0.00,,---,0.00,VWS V14.01,2013-01-08 19:50:00,
2013-01-08 12:55:00,45.3,13.3,30.06,North,349,2.0,4.0,27,0.00,,---,0.00,VWS V14.01,2013-01-08 19:55:00,
2013-01-08 13:00:00,46.2,13.2,30.06,NNE,32,2.0,6.0,26,0.00,,---,0.00,VWS V14.01,2013-01-08 20:00:00,
2013-01-08 13:05:00,46.2,13.2,30.06,NNW,348,4.0,11.0,26,0.00,,---,0.00,VWS V14.01,2013-01-08 20:05:00,
2013-01-08 13:10:00,46.3,12.4,30.06,West,279,3.0,3.0,25,0.00,,---,0.00,VWS V14.01,2013-01-08 20:10:00,
2013-01-08 13:15:00,47.2,12.3,30.06,NNW,329,6.0,7.0,24,0.00,,---,0.00,VWS V14.01,2013-01-08 20:15:00,
2013-01-08 13:20:00,47.2,12.3,30.05,NNW,338,4.0,5.0,24,0.00,,---,0.00,VWS V14.01,2013-01-08 20:20:00,
2013-01-08 13:25:00,47.6,10.6,30.06,NW,310,1.0,3.0,22,0.00,,---,0.00,VWS V14.01,2013-01-08 20:25:00,
2013-01-08 13:30:00,47.8,11.8,30.06,NNW,333,7.0,8.0,23,0.00,,---,0.00,VWS V14.01,2013-01-08 20:30:00,
2013-01-08 13:35:00,48.6,10.4,30.07,North,350,5.0,7.0,21,0.00,,---,0.00,VWS V14.01,2013-01-08 20:35:00,
2013-01-08 13:40:00,49.1,11.9,30.07,NE,36,4.0,7.0,22,0.00,,---,0.00,VWS V14.01,2013-01-08 20:40:00,
2013-01-08 13:41:00,49.4,12.2,30.07,NW,313,5.0,10.0,22,0.00,,---,0.00,VWS V14.01,2013-01-08 20:41:00,
2013-01-08 13:45:00,49.2,10.9,30.07,NNW,327,4.0,10.0,21,0.00,,---,0.00,VWS V14.01,2013-01-08 20:45:00,
2013-01-08 13:46:00,49.1,10.9,30.07,North,355,3.0,8.0,21,0.00,,---,0.00,VWS V14.01,2013-01-08 20:46:00,
2013-01-08 13:50:00,49.1,11.9,30.07,North,5,2.0,10.0,22,0.00,,---,0.00,VWS V14.01,2013-01-08 20:50:00,
2013-01-08 13:55:00,48.8,11.7,30.07,North,11,7.0,10.0,22,0.00,,---,0.00,VWS V14.01,2013-01-08 20:55:00,
2013-01-08 14:00:00,49.1,10.9,30.08,North,360,6.0,11.0,21,0.00,,---,0.00,VWS V14.01,2013-01-08 21:00:00,
2013-01-08 14:05:00,49.2,10.9,30.07,North,360,10.0,10.0,21,0.00,,---,0.00,VWS V14.01,2013-01-08 21:05:00,
2013-01-08 14:10:00,49.4,10.0,30.07,NNW,338,4.0,6.0,20,0.00,,---,0.00,VWS V14.01,2013-01-08 21:10:00,
2013-01-08 14:15:00,49.5,11.2,30.08,North,360,9.0,14.0,21,0.00,,---,0.00,VWS V14.01,2013-01-08 21:15:00,
2013-01-08 14:20:00,49.0,10.8,30.07,NNW,336,5.0,8.0,21,0.00,,---,0.00,VWS V14.01,2013-01-08 21:20:00,
2013-01-08 14:25:00,48.9,11.7,30.07,NNW,336,3.0,4.0,22,0.00,,---,0.00,VWS V14.01,2013-01-08 21:25:00,
2013-01-08 14:30:00,49.4,11.1,30.07,North,355,6.0,6.0,21,0.00,,---,0.00,VWS V14.01,2013-01-08 21:30:00,
2013-01-08 14:35:00,49.9,11.5,30.08,NNW,327,5.0,8.0,21,0.00,,---,0.00,VWS V14.01,2013-01-08 21:35:00,
2013-01-08 14:40:00,49.7,11.4,30.08,NW,321,5.0,6.0,21,0.00,,---,0.00,VWS V14.01,2013-01-08 21:40:00,
2013-01-08 14:45:00,49.7,11.4,30.08,NW,324,1.0,5.0,21,0.00,,---,0.00,VWS V14.01,2013-01-08 21:45:00,
2013-01-08 14:50:00,49.7,10.3,30.08,NNW,345,7.0,8.0,20,0.00,,---,0.00,VWS V14.01,2013-01-08 21:50:00,
2013-01-08 14:55:00,49.7,10.3,30.08,North,351,4.0,5.0,20,0.00,,---,0.00,VWS V14.01,2013-01-08 21:55:00,
2013-01-08 15:00:00,49.6,11.3,30.08,NW,326,3.0,7.0,21,0.00,,---,0.00,VWS V14.01,2013-01-08 22:00:00,
2013-01-08 15:05:00,50.0,10.5,30.08,NNE,12,4.0,6.0,20,0.00,,---,0.00,VWS V14.01,2013-01-08 22:05:00,
2013-01-08 15:10:00,50.0,10.5,30.09,NW,306,4.0,6.0,20,0.00,,---,0.00,VWS V14.01,2013-01-08 22:10:00,
2013-01-08 15:15:00,49.7,10.3,30.08,NNW,331,1.0,5.0,20,0.00,,---,0.00,VWS V14.01,2013-01-08 22:15:00,
2013-01-08 15:20:00,49.7,11.4,30.09,NNW,340,5.0,5.0,21,0.00,,---,0.00,VWS V14.01,2013-01-08 22:20:00,
2013-01-08 15:25:00,49.6,11.3,30.09,WNW,300,0.0,3.0,21,0.00,,---,0.00,VWS V14.01,2013-01-08 22:25:00,
2013-01-08 15:30:00,49.9,10.4,30.09,NNW,342,3.0,9.0,20,0.00,,---,0.00,VWS V14.01,2013-01-08 22:30:00,
2013-01-08 15:35:00,49.8,10.4,30.09,WNW,303,2.0,6.0,20,0.00,,---,0.00,VWS V14.01,2013-01-08 22:35:00,
2013-01-08 15:40:00,49.4,11.1,30.09,NNW,336,2.0,6.0,21,0.00,,---,0.00,VWS V14.01,2013-01-08 22:40:00,
2013-01-08 15:45:00,49.3,12.1,30.09,NW,313,3.0,5.0,22,0.00,,---,0.00,VWS V14.01,2013-01-08 22:45:00,
2013-01-08 15:50:00,48.9,11.7,30.09,NNW,343,3.0,5.0,22,0.00,,---,0.00,VWS V14.01,2013-01-08 22:50:00,
2013-01-08 15:55:00,49.0,11.8,30.10,NNW,330,1.0,3.0,22,0.00,,---,0.00,VWS V14.01,2013-01-08 22:55:00,
2013-01-08 16:00:00,48.4,11.3,30.10,NNW,335,1.0,5.0,22,0.00,,---,0.00,VWS V14.01,2013-01-08 23:00:00,
2013-01-08 16:05:00,47.9,11.9,30.10,NW,319,1.0,7.0,23,0.00,,---,0.00,VWS V14.01,2013-01-08 23:05:00,
2013-01-08 16:10:00,47.6,11.6,30.11,NW,314,4.0,6.0,23,0.00,,---,0.00,VWS V14.01,2013-01-08 23:10:00,
2013-01-08 16:15:00,47.5,11.6,30.11,West,275,3.0,4.0,23,0.00,,---,0.00,VWS V14.01,2013-01-08 23:15:00,
2013-01-08 16:20:00,47.1,12.2,30.11,NNW,346,3.0,6.0,24,0.00,,---,0.00,VWS V14.01,2013-01-08 23:20:00,
2013-01-08 16:25:00,46.9,12.0,30.11,NNW,339,4.0,6.0,24,0.00,,---,0.00,VWS V14.01,2013-01-08 23:25:00,
2013-01-08 16:30:00,46.8,12.9,30.11,NW,323,3.0,5.0,25,0.00,,---,0.00,VWS V14.01,2013-01-08 23:30:00,
2013-01-08 16:35:00,46.3,12.4,30.11,NW,313,3.0,6.0,25,0.00,,---,0.00,VWS V14.01,2013-01-08 23:35:00,
2013-01-08 16:40:00,45.6,12.7,30.12,NW,308,3.0,7.0,26,0.00,,---,0.00,VWS V14.01,2013-01-08 23:40:00,
2013-01-08 16:45:00,45.0,13.1,30.12,NW,310,1.0,4.0,27,0.00,,---,0.00,VWS V14.01,2013-01-08 23:45:00,
2013-01-08 16:50:00,44.6,12.7,30.12,NW,325,3.0,5.0,27,0.00,,---,0.00,VWS V14.01,2013-01-08 23:50:00,
2013-01-08 16:55:00,44.3,13.3,30.12,NW,308,1.0,5.0,28,0.00,,---,0.00,VWS V14.01,2013-01-08 23:55:00,
2013-01-08 17:00:00,44.1,13.1,30.13,NNW,340,4.0,7.0,28,0.00,,---,0.00,VWS V14.01,2013-01-09 00:00:00,
2013-01-08 17:05:00,43.8,13.6,30.13,NNW,327,2.0,5.0,29,0.00,,---,0.00,VWS V14.01,2013-01-09 00:05:00,
2013-01-08 17:10:00,43.4,13.3,30.13,North,355,4.0,4.0,29,0.00,,---,0.00,VWS V14.01,2013-01-09 00:10:00,
2013-01-08 17:15:00,43.2,13.9,30.14,NW,321,2.0,3.0,30,0.00,,---,0.00,VWS V14.01,2013-01-09 00:15:00,
2013-01-08 17:20:00,42.8,13.5,30.14,NNW,340,3.0,6.0,30,0.00,,---,0.00,VWS V14.01,2013-01-09 00:20:00,
2013-01-08 17:25:00,42.5,14.0,30.14,NNW,339,2.0,5.0,31,0.00,,---,0.00,VWS V14.01,2013-01-09 00:25:00,
2013-01-08 17:30:00,42.3,13.8,30.14,NW,324,3.0,3.0,31,0.00,,---,0.00,VWS V14.01,2013-01-09 00:30:00,
2013-01-08 17:35:00,42.0,14.3,30.14,NNW,330,2.0,7.0,32,0.00,,---,0.00,VWS V14.01,2013-01-09 00:35:00,
2013-01-08 17:40:00,41.7,14.0,30.15,NNW,341,1.0,5.0,32,0.00,,---,0.00,VWS V14.01,2013-01-09 00:40:00,
2013-01-08 17:45:00,41.5,14.6,30.15,NNW,340,3.0,4.0,33,0.00,,---,0.00,VWS V14.01,2013-01-09 00:45:00,
2013-01-08 17:50:00,41.2,14.3,30.15,NNW,336,0.0,1.0,33,0.00,,---,0.00,VWS V14.01,2013-01-09 00:50:00,
2013-01-08 17:55:00,40.7,14.5,30.15,NNW,337,0.0,2.0,34,0.00,,---,0.00,VWS V14.01,2013-01-09 00:55:00,
2013-01-08 18:00:00,40.4,14.3,30.16,NNW,342,1.0,1.0,34,0.00,,---,0.00,VWS V14.01,2013-01-09 01:00:00,
2013-01-08 18:05:00,40.1,14.7,30.17,NNW,332,3.0,5.0,35,0.00,,---,0.00,VWS V14.01,2013-01-09 01:05:00,
2013-01-08 18:10:00,40.1,14.7,30.17,NNW,336,4.0,4.0,35,0.00,,---,0.00,VWS V14.01,2013-01-09 01:10:00,
2013-01-08 18:15:00,39.8,14.4,30.17,North,5,0.0,2.0,35,0.00,,---,0.00,VWS V14.01,2013-01-09 01:15:00,
2013-01-08 18:20:00,39.5,14.1,30.17,NNW,346,1.0,2.0,35,0.00,,---,0.00,VWS V14.01,2013-01-09 01:20:00,
2013-01-08 18:25:00,39.1,14.4,30.18,NNW,346,0.0,0.0,36,0.00,,---,0.00,VWS V14.01,2013-01-09 01:25:00,
2013-01-08 18:30:00,38.7,14.1,30.18,NNW,347,3.0,3.0,36,0.00,,---,0.00,VWS V14.01,2013-01-09 01:30:00,
2013-01-08 18:35:00,38.5,14.5,30.18,NNW,339,1.0,3.0,37,0.00,,---,0.00,VWS V14.01,2013-01-09 01:35:00,
2013-01-08 18:40:00,38.3,14.3,30.19,NNW,339,3.0,4.0,37,0.00,,---,0.00,VWS V14.01,2013-01-09 01:40:00,
2013-01-08 18:45:00,38.3,14.3,30.19,NNE,16,2.0,2.0,37,0.00,,---,0.00,VWS V14.01,2013-01-09 01:45:00,
2013-01-08 18:50:00,37.9,14.6,30.19,North,355,3.0,4.0,38,0.00,,---,0.00,VWS V14.01,2013-01-09 01:50:00,
2013-01-08 18:55:00,37.8,14.5,30.19,NNW,348,0.0,1.0,38,0.00,,---,0.00,VWS V14.01,2013-01-09 01:55:00,
2013-01-08 19:00:00,37.5,14.8,30.20,NNW,329,3.0,6.0,39,0.00,,---,0.00,VWS V14.01,2013-01-09 02:00:00,
2013-01-08 19:05:00,37.4,15.3,30.20,NW,323,2.0,4.0,40,0.00,,---,0.00,VWS V14.01,2013-01-09 02:05:00,
2013-01-08 19:10:00,37.1,15.0,30.20,NNE,13,2.0,3.0,40,0.00,,---,0.00,VWS V14.01,2013-01-09 02:10:00,
2013-01-08 19:15:00,37.0,14.9,30.20,North,9,1.0,4.0,40,0.00,,---,0.00,VWS V14.01,2013-01-09 02:15:00,
2013-01-08 19:20:00,36.8,14.8,30.20,North,360,3.0,4.0,40,0.00,,---,0.00,VWS V14.01,2013-01-09 02:20:00,
2013-01-08 19:25:00,36.5,15.1,30.20,North,355,1.0,4.0,41,0.00,,---,0.00,VWS V14.01,2013-01-09 02:25:00,
2013-01-08 19:30:00,36.3,14.9,30.20,North,10,1.0,6.0,41,0.00,,---,0.00,VWS V14.01,2013-01-09 02:30:00,
2013-01-08 19:35:00,36.1,14.7,30.20,North,355,3.0,5.0,41,0.00,,---,0.00,VWS V14.01,2013-01-09 02:35:00,
2013-01-08 19:40:00,35.9,15.1,30.20,North,360,4.0,5.0,42,0.00,,---,0.00,VWS V14.01,2013-01-09 02:40:00,
2013-01-08 19:45:00,35.7,14.9,30.21,North,355,3.0,5.0,42,0.00,,---,0.00,VWS V14.01,2013-01-09 02:45:00,
2013-01-08 19:50:00,35.6,14.8,30.21,NNW,344,4.0,6.0,42,0.00,,---,0.00,VWS V14.01,2013-01-09 02:50:00,
2013-01-08 19:55:00,35.5,14.7,30.22,NNE,23,1.0,4.0,42,0.00,,---,0.00,VWS V14.01,2013-01-09 02:55:00,
2013-01-08 20:00:00,35.3,15.1,30.22,NNW,327,2.0,6.0,43,0.00,,---,0.00,VWS V14.01,2013-01-09 03:00:00,
2013-01-08 20:05:00,35.2,15.0,30.22,NNW,331,3.0,4.0,43,0.00,,---,0.00,VWS V14.01,2013-01-09 03:05:00,
2013-01-08 20:10:00,35.0,14.8,30.22,NNW,336,2.0,4.0,43,0.00,,---,0.00,VWS V14.01,2013-01-09 03:10:00,
2013-01-08 20:15:00,34.8,15.1,30.23,North,350,3.0,4.0,44,0.00,,---,0.00,VWS V14.01,2013-01-09 03:15:00,
2013-01-08 20:20:00,34.8,15.1,30.23,North,355,3.0,5.0,44,0.00,,---,0.00,VWS V14.01,2013-01-09 03:20:00,
2013-01-08 20:25:00,34.6,14.9,30.23,NNW,346,2.0,6.0,44,0.00,,---,0.00,VWS V14.01,2013-01-09 03:25:00,
2013-01-08 20:30:00,34.4,14.8,30.24,NNW,331,2.0,4.0,44,0.00,,---,0.00,VWS V14.01,2013-01-09 03:30:00,
2013-01-08 20:35:00,34.4,14.8,30.24,NNW,344,0.0,6.0,44,0.00,,---,0.00,VWS V14.01,2013-01-09 03:35:00,
2013-01-08 20:40:00,34.2,15.1,30.25,NNW,342,2.0,5.0,45,0.00,,---,0.00,VWS V14.01,2013-01-09 03:40:00,
2013-01-08 20:45:00,34.2,15.1,30.25,NNW,344,2.0,5.0,45,0.00,,---,0.00,VWS V14.01,2013-01-09 03:45:00,
2013-01-08 20:50:00,34.0,14.9,30.25,NNW,337,2.0,3.0,45,0.00,,---,0.00,VWS V14.01,2013-01-09 03:50:00,
2013-01-08 20:55:00,33.8,15.2,30.25,NNW,338,2.0,4.0,46,0.00,,---,0.00,VWS V14.01,2013-01-09 03:55:00,
2013-01-08 21:00:00,33.8,15.2,30.26,NNE,30,2.0,2.0,46,0.00,,---,0.00,VWS V14.01,2013-01-09 04:00:00,
2013-01-08 21:05:00,33.8,15.2,30.26,North,350,4.0,4.0,46,0.00,,---,0.00,VWS V14.01,2013-01-09 04:05:00,
2013-01-08 21:10:00,33.6,15.0,30.27,NNW,345,0.0,1.0,46,0.00,,---,0.00,VWS V14.01,2013-01-09 04:10:00,
2013-01-08 21:15:00,33.3,15.3,30.27,NNW,348,0.0,3.0,47,0.00,,---,0.00,VWS V14.01,2013-01-09 04:15:00,
2013-01-08 21:20:00,33.2,15.2,30.27,North,9,1.0,3.0,47,0.00,,---,0.00,VWS V14.01,2013-01-09 04:20:00,
2013-01-08 21:25:00,33.1,15.1,30.27,NNW,334,2.0,3.0,47,0.00,,---,0.00,VWS V14.01,2013-01-09 04:25:00,
2013-01-08 21:30:00,33.0,15.0,30.27,NNW,348,2.0,4.0,47,0.00,,---,0.00,VWS V14.01,2013-01-09 04:30:00,
2013-01-08 21:35:00,32.9,15.4,30.27,North,355,4.0,4.0,48,0.00,,---,0.00,VWS V14.01,2013-01-09 04:35:00,
2013-01-08 21:40:00,33.0,15.0,30.28,North,355,0.0,4.0,47,0.00,,---,0.00,VWS V14.01,2013-01-09 04:40:00,
2013-01-08 21:45:00,32.8,15.3,30.28,North,11,2.0,3.0,48,0.00,,---,0.00,VWS V14.01,2013-01-09 04:45:00,
2013-01-08 21:50:00,32.7,15.2,30.28,NNW,340,0.0,3.0,48,0.00,,---,0.00,VWS V14.01,2013-01-09 04:50:00,
2013-01-08 21:55:00,32.7,15.2,30.29,North,9,2.0,2.0,48,0.00,,---,0.00,VWS V14.01,2013-01-09 04:55:00,
2013-01-08 22:00:00,32.5,15.0,30.29,NE,41,0.0,2.0,48,0.00,,---,0.00,VWS V14.01,2013-01-09 05:00:00,
2013-01-08 22:01:00,32.5,15.0,30.29,North,355,2.0,2.0,48,0.00,,---,0.00,VWS V14.01,2013-01-09 05:01:00,
2013-01-08 22:02:00,32.5,15.0,30.29,North,355,1.0,2.0,48,0.00,,---,0.00,VWS V14.01,2013-01-09 05:02:00,
2013-01-08 22:05:00,32.4,15.4,30.29,North,10,0.0,3.0,49,0.00,,---,0.00,VWS V14.01,2013-01-09 05:05:00,
2013-01-08 22:07:00,32.3,15.3,30.29,North,5,0.0,2.0,49,0.00,,---,0.00,VWS V14.01,2013-01-09 05:07:00,
2013-01-08 22:10:00,32.2,15.2,30.29,North,5,0.0,2.0,49,0.00,,---,0.00,VWS V14.01,2013-01-09 05:10:00,
2013-01-08 22:12:00,32.1,15.6,30.30,NE,51,4.0,4.0,50,0.00,,---,0.00,VWS V14.01,2013-01-09 05:12:00,
2013-01-08 22:15:00,32.1,15.6,30.30,NNE,14,0.0,4.0,50,0.00,,---,0.00,VWS V14.01,2013-01-09 05:15:00,
2013-01-08 22:17:00,32.0,15.0,30.30,NNE,14,0.0,2.0,49,0.00,,---,0.00,VWS V14.01,2013-01-09 05:17:00,
2013-01-08 22:20:00,31.9,15.4,30.30,North,5,1.0,5.0,50,0.00,,---,0.00,VWS V14.01,2013-01-09 05:20:00,
2013-01-08 22:22:00,31.8,15.3,30.30,NNW,347,1.0,3.0,50,0.00,,---,0.00,VWS V14.01,2013-01-09 05:22:00,
2013-01-08 22:25:00,31.8,15.3,30.30,NNW,340,2.0,4.0,50,0.00,,---,0.00,VWS V14.01,2013-01-09 05:25:00,
2013-01-08 22:27:00,31.7,15.2,30.30,NE,51,2.0,3.0,50,0.00,,---,0.00,VWS V14.01,2013-01-09 05:27:00,
2013-01-08 22:30:00,31.7,15.7,30.31,NE,36,0.0,3.0,51,0.00,,---,0.00,VWS V14.01,2013-01-09 05:30:00,
2013-01-08 22:32:00,31.6,15.6,30.31,NE,36,0.0,1.0,51,0.00,,---,0.00,VWS V14.01,2013-01-09 05:32:00,
2013-01-08 22:35:00,31.4,15.4,30.31,NNE,30,2.0,2.0,51,0.00,,---,0.00,VWS V14.01,2013-01-09 05:35:00,
2013-01-08 22:37:00,31.3,15.3,30.31,North,355,0.0,2.0,51,0.00,,---,0.00,VWS V14.01,2013-01-09 05:37:00,
2013-01-08 22:40:00,31.2,15.2,30.31,North,355,1.0,2.0,51,0.00,,---,0.00,VWS V14.01,2013-01-09 05:40:00,
2013-01-08 22:42:00,31.2,15.6,30.31,North,5,0.0,2.0,52,0.00,,---,0.00,VWS V14.01,2013-01-09 05:42:00,
2013-01-08 22:45:00,31.2,15.6,30.31,North,5,1.0,2.0,52,0.00,,---,0.00,VWS V14.01,2013-01-09 05:45:00,
2013-01-08 22:47:00,31.1,15.5,30.31,NNW,335,0.0,2.0,52,0.00,,---,0.00,VWS V14.01,2013-01-09 05:47:00,
2013-01-08 22:50:00,31.1,15.5,30.32,NNE,30,0.0,4.0,52,0.00,,---,0.00,VWS V14.01,2013-01-09 05:50:00,
2013-01-08 22:52:00,31.1,15.1,30.32,NNE,21,0.0,1.0,51,0.00,,---,0.00,VWS V14.01,2013-01-09 05:52:00,
2013-01-08 22:55:00,31.1,15.5,30.32,NNE,21,0.0,1.0,52,0.00,,---,0.00,VWS V14.01,2013-01-09 05:55:00,
2013-01-08 22:57:00,30.9,15.4,30.32,NNE,21,0.0,1.0,52,0.00,,---,0.00,VWS V14.01,2013-01-09 05:57:00,
2013-01-08 23:00:00,30.6,15.1,30.32,ENE,69,0.0,1.0,52,0.00,,---,0.00,VWS V14.01,2013-01-09 06:00:00,
2013-01-08 23:02:00,30.5,15.0,30.33,NE,53,1.0,3.0,52,0.00,,---,0.00,VWS V14.01,2013-01-09 06:02:00,
2013-01-08 23:05:00,30.4,15.3,30.33,NNE,32,0.0,3.0,53,0.00,,---,0.00,VWS V14.01,2013-01-09 06:05:00,
2013-01-08 23:07:00,30.4,15.3,30.33,NNE,32,1.0,1.0,53,0.00,,---,0.00,VWS V14.01,2013-01-09 06:07:00,
2013-01-08 23:10:00,30.4,15.3,30.33,NNE,33,0.0,2.0,53,0.00,,---,0.00,VWS V14.01,2013-01-09 06:10:00,
2013-01-08 23:12:00,30.5,15.4,30.33,NE,55,0.0,3.0,53,0.00,,---,0.00,VWS V14.01,2013-01-09 06:12:00,
2013-01-08 23:15:00,30.4,15.3,30.33,NE,44,0.0,3.0,53,0.00,,---,0.00,VWS V14.01,2013-01-09 06:15:00,
2013-01-08 23:17:00,30.3,15.2,30.33,NE,36,1.0,3.0,53,0.00,,---,0.00,VWS V14.01,2013-01-09 06:17:00,
2013-01-08 23:20:00,30.4,15.3,30.33,North,11,1.0,3.0,53,0.00,,---,0.00,VWS V14.01,2013-01-09 06:20:00,
2013-01-08 23:22:00,30.5,15.4,30.33,North,5,0.0,2.0,53,0.00,,---,0.00,VWS V14.01,2013-01-09 06:22:00,
2013-01-08 23:25:00,30.5,15.0,30.33,North,5,1.0,2.0,52,0.00,,---,0.00,VWS V14.01,2013-01-09 06:25:00,
2013-01-08 23:27:00,30.5,15.0,30.33,North,9,1.0,2.0,52,0.00,,---,0.00,VWS V14.01,2013-01-09 06:27:00,
2013-01-08 23:30:00,30.4,14.9,30.34,NNE,19,0.0,2.0,52,0.00,,---,0.00,VWS V14.01,2013-01-09 06:30:00,
2013-01-08 23:31:00,30.5,15.0,30.34,NE,35,0.0,2.0,52,0.00,,---,0.00,VWS V14.01,2013-01-09 06:31:00,
2013-01-08 23:35:00,30.4,14.9,30.34,NE,55,0.0,2.0,52,0.00,,---,0.00,VWS V14.01,2013-01-09 06:35:00,
2013-01-08 23:36:00,30.3,15.2,30.34,NE,54,1.0,1.0,53,0.00,,---,0.00,VWS V14.01,2013-01-09 06:36:00,
2013-01-08 23:40:00,30.3,15.2,30.34,NNE,20,3.0,3.0,53,0.00,,---,0.00,VWS V14.01,2013-01-09 06:40:00,
2013-01-08 23:41:00,30.2,15.1,30.34,NNE,20,0.0,3.0,53,0.00,,---,0.00,VWS V14.01,2013-01-09 06:41:00,
2013-01-08 23:45:00,30.3,15.2,30.34,NNE,24,0.0,3.0,53,0.00,,---,0.00,VWS V14.01,2013-01-09 06:45:00,
2013-01-08 23:46:00,30.3,15.2,30.34,NNE,32,1.0,4.0,53,0.00,,---,0.00,VWS V14.01,2013-01-09 06:46:00,
2013-01-08 23:50:00,30.4,15.3,30.34,NE,35,0.0,4.0,53,0.00,,---,0.00,VWS V14.01,2013-01-09 06:50:00,
2013-01-08 23:51:00,30.4,15.3,30.34,NE,53,1.0,2.0,53,0.00,,---,0.00,VWS V14.01,2013-01-09 06:51:00,
2013-01-08 23:55:00,30.4,15.3,30.34,NE,46,0.0,2.0,53,0.00,,---,0.00,VWS V14.01,2013-01-09 06:55:00,
2013-01-08 23:56:00,30.4,15.3,30.34,NE,42,1.0,2.0,53,0.00,,---,0.00,VWS V14.01,2013-01-09 06:56:00,